sat.trackr.live / text

‹ back to catalog

ECHOSTAR 10

NORAD 28935 · 2006-003A

PAYLOAD ACTIVE UNKNOWN

§ Identity

Operator
Country
US
Launch date
2006-02-15
Launch site
SEAL
Launch vehicle
Mass (kg)
RCS (m²)
22.71

Purposes: comms

External: N2YO · Heavens-Above · Gunter

§ Orbital elements

Epoch: 2026-05-25T03:13:10.826976Z

Period
1,436.10 min
Inclination
0.0249°
Eccentricity
0.0001955
Mean motion
1.00271588 rev/d
Perigee alt
35,778.4 km
Apogee alt
35,794.9 km
Semi-major
42,164.8 km
B*
0.0000e+0
RAAN
17.3610°
Arg perigee
7.4333°
Mean anomaly
156.0304°
Rev number
7,423

§ Raw data

ECHOSTAR 101 28935U 06003A   26145.13415309 -.00000058  00000+0  00000+0 0  99922 28935   0.0249  17.3610 0001955   7.4333 156.0304  1.00271588 74239

JSON: /api/v1/satellites/28935 · /tle

For live sub-satellite position, see the globe view (requires WebGL).

§ Visibility from observer

Set your observer location to see the next 7 days of passes ≥ 10°. The values pass through the URL so the page stays shareable.

No JS? Fill the form by hand. The geolocation button needs JavaScript.